Location: Newark
(45.4422°N, 16.2769°E)
Time: 08:32:53
(UTC+00:00)

Tiros 1 despin weight - Pass Details

Date: 21 December 2019
Orbit: 593 x 643 km, 48.2° (Epoch: 20 January)

Event Time Altitude Azimuth Distance (km) Brightness Sun altitude
Rises 22:01:22 0° 189° (S) 2,924 - -65.6°
Reaches altitude 10° 22:04:48 10° 163° (SSE) 2,014 - -65.9°
Maximum altitude 22:07:03 13° 134° (SE) 1,791 - -66.1°
Drops below altitude 10° 22:09:17 10° 105° (ESE) 2,009 - -66.3°
Sets 22:12:41 0° 79° (E) 2,910 - -66.5°
